Location: Prairie Dale
(45.6972°N, 104.5033°W)
Time: 13:02:48
(UTC+00:00)

DX 1 - Pass Details

Date: 07 July 2022
Orbit: 616 x 630 km, 98.4° (Epoch: 18 August)

Event Time Altitude Azimuth Distance (km) Brightness Sun altitude
Rises 03:24:13 0° 25° (NNE) 2,928 ? -5.6°
Reaches altitude 10° 03:26:45 10° 38° (NE) 2,013 ? -6.0°
Maximum altitude 03:30:24 26° 95° (E) 1,251 ? -6.4°
Drops below altitude 10° 03:34:02 10° 152° (SSE) 1,993 ? -6.9°
Enters shadow 03:34:57 - 158° (SSE) 2,313 ? -7.0°
